Newburgh, NY

3:38 AM EST on February 25, 2018 (GMT -0500)
Stewart International

Weather History for KSWF - November, 2013

Change the Weather History Date:

Friday, November 15, 2013

  Actual Average Record
Temperature  
Mean Temperature 46 °F -  
Max Temperature 87 °F 47 °F 87 °F (2013)
Min Temperature 32 °F 30 °F 15 °F (1986)
Degree Days  
Heating Degree Days 20    
Moisture  
Dew Point 19 °F    
Average Humidity 38    
Maximum Humidity 60    
Minimum Humidity 9    
Precipitation  
Precipitation 0.00 in - - ()
Sea Level Pressure  
Sea Level Pressure 30.19 in    
Wind  
Wind Speed 3 mph (WSW)    
Max Wind Speed 10 mph    
Max Gust Speed -    
Visibility 14 miles    
Events      
Averages and records for this station are not official NWS values.
T = Trace of Precipitation, MM = Missing Value Source: NWS Daily Summary

Daily Weather History Graph

Daily Weather History Graph

Search for Another Location

Airport or City:

Trip Planner

Search our weather history database for the weather conditions in past years. The results will help you decide how hot, cold, wet, or windy it might be!

Date:

Astronomy

Nov. 15, 2013 Rise Set
Actual Time 6:45 AM EST 4:36 PM EST
Civil Twilight 6:15 AM EST 5:06 PM EST
Nautical Twilight 5:42 AM EST 5:39 PM EST
Astronomical Twilight 5:09 AM EST 6:12 PM EST
Moon 3:32 PM EST (11/15) 4:37 AM EST (11/15)
Length of Visible Light 10h 50m
Length of Day
9h 50m
Waxing Gibbous, 96% of the Moon is Illuminated
Nov 15
Waxing Gibbous
Nov 17
Full
Nov 25
Last Quarter
Dec 2
New
Dec 9
First Quarter

Hourly Weather History & Observations

Time (EST) Temp. Windchill Dew Point Humidity Pressure Visibility Wind Dir Wind Speed Gust Speed Precip Events Conditions
12:45 AM 37.4 °F - 15.8 °F 41% 30.17 in 10.0 mi Calm Calm - N/A   Clear
1:45 AM 32.0 °F - 19.4 °F 60% 30.17 in 10.0 mi Calm Calm - N/A   Clear
2:45 AM 35.6 °F - 15.8 °F 44% 30.18 in 10.0 mi Calm Calm - N/A   Clear
3:45 AM 33.8 °F - 17.6 °F 52% 30.19 in 10.0 mi Calm Calm - N/A   Clear
5:45 AM 35.6 °F - 17.6 °F 48% 30.20 in 10.0 mi Calm Calm - N/A   Clear
6:45 AM 33.8 °F 28.6 °F 17.6 °F 52% 30.21 in 20.0 mi West 5.8 mph - N/A   Scattered Clouds
7:45 AM 33.8 °F 28.6 °F 21.2 °F 60% 30.22 in 20.0 mi West 5.8 mph - N/A   Partly Cloudy
8:45 AM 44.6 °F 42.2 °F 21.2 °F 39% 30.22 in 20.0 mi West 4.6 mph - N/A   Partly Cloudy
10:45 AM 51.8 °F - 19.4 °F 28% 30.21 in 20.0 mi WSW 10.4 mph - N/A   Partly Cloudy
11:50 AM 55.4 °F - 19.4 °F 25% 30.18 in 20.0 mi West 9.2 mph - N/A   Scattered Clouds
1:50 PM 59.0 °F - 17.6 °F 20% 30.14 in 20.0 mi West 9.2 mph - N/A   Scattered Clouds
2:45 PM 57.2 °F - 19.4 °F 23% 30.14 in 20.0 mi West 9.2 mph - N/A   Mostly Cloudy
4:45 PM 53.6 °F - 17.6 °F 24% 30.16 in 10.0 mi WSW 6.9 mph - N/A   Scattered Clouds
5:45 PM 46.4 °F 43.5 °F 19.4 °F 34% 30.17 in 10.0 mi WSW 5.8 mph - N/A   Scattered Clouds
6:45 PM 48.2 °F - 17.6 °F 30% 30.18 in 10.0 mi WSW 5.8 mph - N/A   Scattered Clouds
7:45 PM 44.6 °F 41.4 °F 19.4 °F 37% 30.18 in 10.0 mi WSW 5.8 mph - N/A   Scattered Clouds
8:45 PM 46.4 °F 44.3 °F 19.4 °F 34% 30.20 in 10.0 mi SW 4.6 mph - N/A   Scattered Clouds
9:45 PM 42.8 °F - 21.2 °F 42% 30.20 in 10.0 mi Calm Calm - N/A   Scattered Clouds
10:45 PM 39.2 °F - 21.2 °F 49% 30.21 in 10.0 mi Calm Calm - N/A   Scattered Clouds
11:45 PM 87.8 °F - 21.2 °F 9% 30.23 in 10.0 mi Calm Calm - N/A   Scattered Clouds